FENGYUN 1C DEB, 43214

Orbit data source: Space-Track

FENGYUN 1C DEB, 43214 is space debris in SSO originally from a launch on Mon, 10 May 1999 UTC launched from the Taiyaun Space Center, China (TSC). Fengyun 1C debris stems from the Chinese weather satellite Fengyun-1C, which was intentionally destroyed by a Chinese anti-satellite missile in 2007. This event dramatically increased the amount of space debris, with thousands of trackable fragments posing hazards to satellites and human spaceflight. The Fengyun 1C debris cloud has become a focal point in discussions about space sustainability and the need for international regulations to prevent the creation of new debris.

Loading next visibility...
Identifier
43214, 1999-025EYN
Orbit
SSO
Country
Flag of CNCN / PRC
Related business
Manufacturer
Unknown
Mission
Spacecraft
Bus & Motor
Unknown
Mass
Unknown
Launch date (UTC)
1999-05-10 (27 years ago)
Launch vehicle
Unknown
Launch site
Taiyaun Space Center, China (TSC)
Object type
Payload
Rocket body
Debris
Shape & HBR
Unknown shape, 0.1 m
Radar Cross Section
Small (<0.1 m²)

Expand to show TLE details & history
Last TLE update: 10 hours ago

TLE from 10 hours ago
0 FENGYUN 1C DEB
1 43214U 99025EYN 25351.70654961  .00002846  00000-0  12346-2 0  9991
2 43214  98.7360  56.3879 0055763 212.6731 147.0993 14.24164444404741
Epoch: 2025-12-17T16:57Z
TLE epoch observation values (Epoch: 2025-12-17T16:57:25.886Z)
Latitude
-0.00009°
Longitude
75.4575°
Altitude
847.955 km
Speed
7.411 km/s
True Right ascension
03h 45m 33s
True Declination
0° 00' 00"
Sunlit
Object was in full shadow at epoch
Visualization orbit readout
Latitude
Unknown
Longitude
Unknown
Altitude
Unknown
Speed
Unknown
Apparent Right ascension
Unknown
Apparent Declination
Unknown
Sunlit
N/A
Visualization observer readout
Local Sidereal Time
02:12:53
Azimuth
Unknown
Elevation
Unknown
Doppler factor
Unknown
Orbital elements
Apogee altitude
848.532 km
Perigee altitude
768.383 km
Semi-major axis
7,186.594 km
Eccentricity
0.00558
Inclination
98.736°
RAAN
56.3879°
Arg. of periapsis
212.6731°
True anomaly
147.44437°
Mean anomaly
147.0993°
Eccentric anomaly
147.27204°
Mean motion
3.56253 °/min
Orbital period
101.05 mins
BSTAR
0.0012346
Loading maneuver chart data...
Computing Atmospheric mass density...

Documentation

Showing up to 5 results
|